,,PA_Meas_PMT16A,,PR_Meas_QMR101_102,,RH_Meas_QMH101,,SR_Meas_QMS101,,TA_Meas_QMH101,,GenWind,,GenWind,
time,status,PA,status,PR,status,RH,status,SR,status,TA,status,DirAvg,status,SpdAvg,
2009-11-17, 00:00:05,VALID,918.99,VALID,0,VALID,97.6865,VALID,0,VALID,18.7655,VALID,133,VALID,0.540234,
2009-11-17, 00:01:05,VALID,918.995,VALID,0,VALID,97.6941,VALID,0,VALID,18.746,VALID,133,VALID,0.576563,
2009-11-17, 00:02:05,VALID,918.992,VALID,0,VALID,97.7017,VALID,0,VALID,18.746,VALID,133,VALID,0.60625,
2009-11-17, 00:03:05,VALID,918.968,VALID,0,VALID,97.7093,VALID,0,VALID,18.785,VALID,133,VALID,0.426562,
2009-11-17, 00:04:05,VALID,918.971,VALID,0,VALID,97.6865,VALID,0.107441,VALID,18.8059,VALID,133,VALID,0.433984,
2009-11-17, 00:05:05,VALID,918.952,VALID,0,VALID,97.7017,VALID,0,VALID,18.7655,VALID,133,VALID,0.417578,
2009-11-17, 00:06:05,VALID,918.949,VALID,0,VALID,97.6788,VALID,0,VALID,18.7655,VALID,133,VALID,0.48125,
2009-11-17, 00:07:05,VALID,918.987,VALID,0,VALID,97.7017,VALID,0,VALID,18.7655,VALID,133,VALID,0.583203,
2009-11-17, 00:08:05,VALID,918.958,VALID,0,VALID,97.6941,VALID,0,VALID,18.746,VALID,133,VALID,0.607813,
2009-11-17, 00:09:05,VALID,918.956,VALID,0,VALID,97.6788,VALID,0,VALID,18.746,VALID,133,VALID,0.511719,
2009-11-17, 00:10:05,VALID,918.94,VALID,0,VALID,97.6865,VALID,0,VALID,18.7669,VALID,133,VALID,0.717188,
2009-11-17, 00:11:05,VALID,918.921,VALID,0,VALID,97.6636,VALID,0,VALID,18.7265,VALID,133,VALID,0.589063,
2009-11-17, 00:12:05,VALID,918.888,VALID,0,VALID,97.6712,VALID,0,VALID,18.746,VALID,133,VALID,0.490625,
2009-11-17, 00:13:05,VALID,918.858,VALID,0,VALID,97.6788,VALID,0,VALID,18.746,VALID,133,VALID,0.737891,
2009-11-17, 00:14:05,VALID,918.847,VALID,0,VALID,97.6636,VALID,0,VALID,18.707,VALID,133,VALID,0.694531,
2009-11-17, 00:15:05,VALID,918.812,VALID,0,VALID,97.6407,VALID,0,VALID,18.6861,VALID,133,VALID,0.886328,
2009-11-17, 00:16:05,VALID,918.825,VALID,0,VALID,97.6407,VALID,0,VALID,18.707,VALID,133,VALID,0.771484,
2009-11-17, 00:17:05,VALID,918.794,VALID,0,VALID,97.656,VALID,0,VALID,18.707,VALID,133,VALID,0.720703,
2009-11-17, 00:18:05,VALID,918.775,VALID,0,VALID,97.6636,VALID,0,VALID,18.6875,VALID,133,VALID,0.603906,
2009-11-17, 00:19:05,VALID,918.757,VALID,0,VALID,97.6331,VALID,0,VALID,18.707,VALID,133,VALID,0.647656,
2009-11-17, 00:20:05,VALID,918.752,VALID,0,VALID,97.6102,VALID,0,VALID,18.6875,VALID,133,VALID,0.823047,
2009-11-17, 00:21:05,VALID,918.722,VALID,0,VALID,97.6178,VALID,0,VALID,18.6889,VALID,133,VALID,0.622266,
2009-11-17, 00:22:05,VALID,918.706,VALID,0,VALID,97.6026,VALID,0,VALID,18.668,VALID,133,VALID,0.721094,
2009-11-17, 00:23:05,VALID,918.677,VALID,0,VALID,97.5873,VALID,0,VALID,18.6889,VALID,119,VALID,1.09766,
2009-11-17, 00:24:05,VALID,918.653,VALID,0,VALID,97.5797,VALID,0,VALID,18.6485,VALID,111,VALID,0.898438,
2009-11-17, 00:25:05,VALID,918.679,VALID,0,VALID,97.534,VALID,0,VALID,18.6485,VALID,111,VALID,1.05664,
2009-11-17, 00:26:05,VALID,918.688,VALID,0,VALID,97.5264,VALID,0,VALID,18.6485,VALID,111,VALID,0.619922,
2009-11-17, 00:27:05,VALID,918.703,VALID,0,VALID,97.4959,VALID,0,VALID,18.629,VALID,111,VALID,1.18359,
2009-11-17, 00:28:05,VALID,918.684,VALID,0,VALID,97.4654,VALID,0,VALID,18.6095,VALID,97,VALID,1.57891,
2009-11-17, 00:29:05,VALID,918.673,VALID,0,VALID,97.4959,VALID,0,VALID,18.59,VALID,111,VALID,1.18008,
2009-11-17, 00:30:05,VALID,918.677,VALID,0,VALID,97.5111,VALID,0,VALID,18.59,VALID,116,VALID,0.844922,
2009-11-17, 00:31:05,VALID,918.66,VALID,0,VALID,97.5416,VALID,0,VALID,18.59,VALID,117,VALID,1.69453,
2009-11-17, 00:32:05,VALID,918.669,VALID,0,VALID,97.5797,VALID,0,VALID,18.5496,VALID,118,VALID,0.953906,
2009-11-17, 00:33:05,VALID,918.674,VALID,0,VALID,97.6026,VALID,0,VALID,18.5705,VALID,130,VALID,1.19922,
2009-11-17, 00:34:05,VALID,918.631,VALID,0,VALID,97.6407,VALID,0,VALID,18.5705,VALID,121,VALID,1.37266,
2009-11-17, 00:35:05,VALID,918.6,VALID,0,VALID,97.6788,VALID,0,VALID,18.5705,VALID,140,VALID,1.24492,
2009-11-17, 00:36:05,VALID,918.641,VALID,0,VALID,97.6865,VALID,0,VALID,18.5705,VALID,131,VALID,1.40469,
2009-11-17, 00:37:05,VALID,918.634,VALID,0,VALID,97.6941,VALID,0,VALID,18.5511,VALID,139,VALID,0.900781,
2009-11-17, 00:38:05,VALID,918.598,VALID,0,VALID,97.7169,VALID,0,VALID,18.5705,VALID,127,VALID,1.33203,
2009-11-17, 00:39:05,VALID,918.61,VALID,0,VALID,97.7474,VALID,0,VALID,18.59,VALID,122,VALID,0.61875,
2009-11-17, 00:40:05,VALID,918.619,VALID,0,VALID,97.7474,VALID,0,VALID,18.5886,VALID,106,VALID,0.636328,
2009-11-17, 00:41:05,VALID,918.578,VALID,0,VALID,97.7703,VALID,0,VALID,18.5677,VALID,113,VALID,1.2418,
2009-11-17, 00:42:05,VALID,918.606,VALID,0,VALID,97.7627,VALID,0,VALID,18.6081,VALID,151,VALID,1.04492,
2009-11-17, 00:43:05,VALID,918.568,VALID,0,VALID,97.7932,VALID,0,VALID,18.6081,VALID,117,VALID,1.43984,
2009-11-17, 00:44:05,VALID,918.563,VALID,0,VALID,97.7779,VALID,0,VALID,18.6081,VALID,144,VALID,1.83281,
2009-11-17, 00:45:05,VALID,918.557,VALID,0,VALID,97.8008,VALID,0,VALID,18.629,VALID,134,VALID,1.39883,
2009-11-17, 00:46:05,VALID,918.543,VALID,0,VALID,97.816,VALID,0,VALID,18.6276,VALID,140,VALID,1.03828,
2009-11-17, 00:47:05,VALID,918.518,VALID,0,VALID,97.8313,VALID,0.107441,VALID,18.6471,VALID,125,VALID,1.4375,
2009-11-17, 00:48:05,VALID,918.524,VALID,0,VALID,97.8084,VALID,0,VALID,18.6081,VALID,126,VALID,1.41562,
2009-11-17, 00:49:05,VALID,918.52,VALID,0,VALID,97.8313,VALID,0,VALID,18.6485,VALID,124,VALID,1.0543,
2009-11-17, 00:50:05,VALID,918.51,VALID,0,VALID,97.8008,VALID,0,VALID,18.6081,VALID,164,VALID,0.951172,
2009-11-17, 00:51:05,VALID,918.514,VALID,0,VALID,97.7627,VALID,0,VALID,18.5886,VALID,109,VALID,1.07734,
2009-11-17, 00:52:05,VALID,918.533,VALID,0,VALID,97.8008,VALID,0.107441,VALID,18.5691,VALID,129,VALID,0.766797,
2009-11-17, 00:53:05,VALID,918.543,VALID,0,VALID,97.8008,VALID,0,VALID,18.5496,VALID,123,VALID,1.21836,
2009-11-17, 00:54:05,VALID,918.525,VALID,0,VALID,97.7856,VALID,0,VALID,18.5705,VALID,169,VALID,1.10312,
2009-11-17, 00:55:05,VALID,918.536,VALID,0,VALID,97.8008,VALID,0,VALID,18.572,VALID,195,VALID,0.897656,
2009-11-17, 00:56:05,VALID,918.535,VALID,0,VALID,97.7856,VALID,0,VALID,18.5511,VALID,195,VALID,1.27383,
2009-11-17, 00:57:05,VALID,918.489,VALID,0,VALID,97.7779,VALID,0,VALID,18.5511,VALID,194,VALID,1.28984,
2009-11-17, 00:58:05,VALID,918.524,VALID,0,VALID,97.7627,VALID,0,VALID,18.5511,VALID,194,VALID,0.658594,
2009-11-17, 00:59:05,VALID,918.502,VALID,0,VALID,97.7703,VALID,0,VALID,18.5511,VALID,122,VALID,0.995313,
2009-11-17, 01:00:05,VALID,918.507,VALID,0,VALID,97.7779,VALID,0,VALID,18.572,VALID,180,VALID,0.717578,
2009-11-17, 01:01:05,VALID,918.503,VALID,0,VALID,97.7474,VALID,0,VALID,18.5705,VALID,156,VALID,0.698438,
2009-11-17, 01:02:05,VALID,918.508,VALID,0,VALID,97.7246,VALID,0,VALID,18.5302,VALID,139,VALID,1.08438,
2009-11-17, 01:03:05,VALID,918.494,VALID,0,VALID,97.7398,VALID,0,VALID,18.5705,VALID,139,VALID,1.10469,
2009-11-17, 01:04:05,VALID,918.5,VALID,0,VALID,97.7169,VALID,0,VALID,18.572,VALID,150,VALID,0.601563,
2009-11-17, 01:05:05,VALID,918.465,VALID,0,VALID,97.7093,VALID,0,VALID,18.5705,VALID,150,VALID,0.998438,
2009-11-17, 01:06:05,VALID,918.49,VALID,0,VALID,97.6865,VALID,0,VALID,18.5705,VALID,126,VALID,1.02188,
2009-11-17, 01:07:05,VALID,918.517,VALID,0,VALID,97.6483,VALID,0,VALID,18.572,VALID,125,VALID,1.10273,
2009-11-17, 01:08:05,VALID,918.493,VALID,0,VALID,97.6255,VALID,0,VALID,18.5316,VALID,125,VALID,1.10664,
2009-11-17, 01:09:05,VALID,918.477,VALID,0,VALID,97.595,VALID,0,VALID,18.5511,VALID,125,VALID,1.42422,
2009-11-17, 01:10:05,VALID,918.482,VALID,0,VALID,97.5721,VALID,0,VALID,18.5511,VALID,117,VALID,0.916406,
2009-11-17, 01:11:05,VALID,918.521,VALID,0,VALID,97.5492,VALID,0,VALID,18.5525,VALID,117,VALID,1.00352,
2009-11-17, 01:12:05,VALID,918.479,VALID,0,VALID,97.5264,VALID,0,VALID,18.572,VALID,158,VALID,1.37812,
2009-11-17, 01:13:05,VALID,918.476,VALID,0,VALID,97.4806,VALID,0,VALID,18.5316,VALID,129,VALID,1.44141,
2009-11-17, 01:14:05,VALID,918.464,VALID,0,VALID,97.4425,VALID,0,VALID,18.5511,VALID,144,VALID,1.21289,
2009-11-17, 01:15:05,VALID,918.421,VALID,0,VALID,97.412,VALID,0,VALID,18.572,VALID,151,VALID,1.03594,
2009-11-17, 01:16:05,VALID,918.419,VALID,0,VALID,97.3815,VALID,0,VALID,18.5705,VALID,129,VALID,0.795703,
2009-11-17, 01:17:05,VALID,918.366,VALID,0,VALID,97.3358,VALID,0,VALID,18.5511,VALID,128,VALID,1.33555,
2009-11-17, 01:18:05,VALID,918.345,VALID,0,VALID,97.3129,VALID,0,VALID,18.5705,VALID,121,VALID,1.29648,
2009-11-17, 01:19:05,VALID,918.338,VALID,0,VALID,97.2748,VALID,0,VALID,18.5705,VALID,121,VALID,1.20391,
2009-11-17, 01:20:05,VALID,918.276,VALID,0,VALID,97.2748,VALID,0,VALID,18.5705,VALID,121,VALID,1.51563,
2009-11-17, 01:21:05,VALID,918.266,VALID,0,VALID,97.2443,VALID,0,VALID,18.59,VALID,121,VALID,1.23555,
2009-11-17, 01:22:05,VALID,918.23,VALID,0,VALID,97.2519,VALID,0,VALID,18.59,VALID,121,VALID,0.722266,
2009-11-17, 01:23:05,VALID,918.221,VALID,0,VALID,97.2138,VALID,0,VALID,18.59,VALID,121,VALID,1.3582,
2009-11-17, 01:24:05,VALID,918.211,VALID,0,VALID,97.1757,VALID,0,VALID,18.5886,VALID,121,VALID,0.632813,
2009-11-17, 01:25:05,VALID,918.179,VALID,0,VALID,97.1833,VALID,0.107441,VALID,18.6081,VALID,121,VALID,0.798828,
2009-11-17, 01:26:05,VALID,918.15,VALID,0,VALID,97.1604,VALID,0,VALID,18.6095,VALID,121,VALID,0.825391,
2009-11-17, 01:27:05,VALID,918.131,VALID,0,VALID,97.1833,VALID,0,VALID,18.629,VALID,121,VALID,0.958984,
2009-11-17, 01:28:05,VALID,918.118,VALID,0,VALID,97.1833,VALID,0.107441,VALID,18.6081,VALID,121,VALID,0.773438,
2009-11-17, 01:29:05,VALID,918.073,VALID,0,VALID,97.1452,VALID,0,VALID,18.629,VALID,146,VALID,1.04805,
2009-11-17, 01:30:05,VALID,918.053,VALID,0,VALID,97.1528,VALID,0,VALID,18.629,VALID,141,VALID,0.801172,
2009-11-17, 01:31:05,VALID,918.049,VALID,0,VALID,97.1757,VALID,0,VALID,18.6485,VALID,141,VALID,0.497266,
2009-11-17, 01:32:05,VALID,918.012,VALID,0,VALID,97.1757,VALID,0.107441,VALID,18.6081,VALID,138,VALID,0.942578,
2009-11-17, 01:33:05,VALID,917.982,VALID,0,VALID,97.1909,VALID,0,VALID,18.6081,VALID,129,VALID,0.892187,
2009-11-17, 01:34:05,VALID,917.977,VALID,0,VALID,97.1604,VALID,0,VALID,18.6095,VALID,129,VALID,1.11914,
2009-11-17, 01:35:05,VALID,917.979,VALID,0,VALID,97.1452,VALID,0,VALID,18.6081,VALID,129,VALID,1.27578,
2009-11-17, 01:36:05,VALID,917.958,VALID,0,VALID,97.1452,VALID,0,VALID,18.629,VALID,145,VALID,1.00391,
2009-11-17, 01:37:05,VALID,917.949,VALID,0,VALID,97.1223,VALID,0,VALID,18.629,VALID,151,VALID,1.16953,
2009-11-17, 01:38:05,VALID,917.948,VALID,0,VALID,97.1223,VALID,0.107441,VALID,18.6485,VALID,134,VALID,0.425391,
2009-11-17, 01:39:05,VALID,917.942,VALID,0,VALID,97.1452,VALID,0,VALID,18.6276,VALID,134,VALID,0.277344,
2009-11-17, 01:40:05,VALID,917.957,VALID,0,VALID,97.1528,VALID,0,VALID,18.6471,VALID,134,VALID,0,
2009-11-17, 01:41:05,VALID,917.968,VALID,0,VALID,97.2062,VALID,0,VALID,18.6276,VALID,134,VALID,0.214453,
2009-11-17, 01:42:05,VALID,917.984,VALID,0,VALID,97.2138,VALID,0,VALID,18.6276,VALID,134,VALID,0.362891,
2009-11-17, 01:43:05,VALID,917.942,VALID,0,VALID,97.1681,VALID,0,VALID,18.6485,VALID,134,VALID,0.116797,
2009-11-17, 01:44:05,VALID,917.947,VALID,0,VALID,97.2062,VALID,0,VALID,18.6276,VALID,134,VALID,0.420312,
2009-11-17, 01:45:05,VALID,917.913,VALID,0,VALID,97.1528,VALID,0,VALID,18.6485,VALID,134,VALID,0.605078,
2009-11-17, 01:46:05,VALID,917.883,VALID,0,VALID,97.1299,VALID,0,VALID,18.6471,VALID,134,VALID,0.725,
2009-11-17, 01:47:05,VALID,917.865,VALID,0,VALID,97.1376,VALID,0,VALID,18.668,VALID,134,VALID,0.345703,
2009-11-17, 01:48:05,VALID,917.853,VALID,0,VALID,97.0994,VALID,0.107441,VALID,18.6485,VALID,134,VALID,0.624609,
2009-11-17, 01:49:05,VALID,917.851,VALID,0,VALID,97.1223,VALID,0.107441,VALID,18.6485,VALID,134,VALID,0.550781,
2009-11-17, 01:50:05,VALID,917.818,VALID,0,VALID,97.0994,VALID,0,VALID,18.629,VALID,134,VALID,0.671875,
2009-11-17, 01:51:05,VALID,917.773,VALID,0,VALID,97.0994,VALID,0,VALID,18.6081,VALID,134,VALID,0.560547,
2009-11-17, 01:52:05,VALID,917.752,VALID,0,VALID,97.0842,VALID,0,VALID,18.5886,VALID,134,VALID,0.569922,
2009-11-17, 01:53:05,VALID,917.747,VALID,0,VALID,97.069,VALID,0,VALID,18.59,VALID,134,VALID,0.694141,
2009-11-17, 01:54:05,VALID,917.729,VALID,0,VALID,97.0537,VALID,0.107441,VALID,18.5691,VALID,134,VALID,0.765625,
2009-11-17, 01:55:05,VALID,917.691,VALID,0,VALID,96.9927,VALID,0.107441,VALID,18.5705,VALID,133,VALID,1.29805,
2009-11-17, 01:56:05,VALID,917.663,VALID,0,VALID,96.8936,VALID,0,VALID,18.5705,VALID,133,VALID,1.26719,
2009-11-17, 01:57:05,VALID,917.63,VALID,0,VALID,96.8403,VALID,0,VALID,18.5705,VALID,133,VALID,1.21992,
2009-11-17, 01:58:05,VALID,917.614,VALID,0,VALID,96.8021,VALID,0,VALID,18.5705,VALID,126,VALID,0.958594,
2009-11-17, 01:59:05,VALID,917.579,VALID,0,VALID,96.7869,VALID,0,VALID,18.5705,VALID,126,VALID,0.915625,
2009-11-17, 02:00:05,VALID,917.542,VALID,0,VALID,96.7716,VALID,0,VALID,18.5496,VALID,126,VALID,1.16836,
2009-11-17, 02:01:05,VALID,917.531,VALID,0,VALID,96.7716,VALID,0,VALID,18.5511,VALID,126,VALID,0.932422,
2009-11-17, 02:02:05,VALID,917.494,VALID,0,VALID,96.8098,VALID,0,VALID,18.5705,VALID,126,VALID,0.454688,
2009-11-17, 02:03:05,VALID,917.491,VALID,0,VALID,96.886,VALID,0.107441,VALID,18.5511,VALID,126,VALID,0.441016,
2009-11-17, 02:04:05,VALID,917.484,VALID,0,VALID,96.9089,VALID,0,VALID,18.5511,VALID,126,VALID,0.639453,
2009-11-17, 02:05:05,VALID,917.481,VALID,0,VALID,96.9241,VALID,0,VALID,18.5302,VALID,126,VALID,0.637109,
2009-11-17, 02:06:05,VALID,917.454,VALID,0,VALID,96.9317,VALID,0,VALID,18.5107,VALID,125,VALID,0.715625,
2009-11-17, 02:07:05,VALID,917.447,VALID,0,VALID,96.9698,VALID,0,VALID,18.4912,VALID,125,VALID,0.815234,
2009-11-17, 02:08:05,VALID,917.432,VALID,0,VALID,96.9698,VALID,0,VALID,18.4717,VALID,126,VALID,1.05313,
2009-11-17, 02:09:04,VALID,917.388,VALID,0,VALID,97.0003,VALID,0.107441,VALID,18.4717,VALID,126,VALID,1.22031,
2009-11-17, 02:10:04,VALID,917.396,VALID,0,VALID,97.0232,VALID,0.107441,VALID,18.4717,VALID,126,VALID,1.04102,
2009-11-17, 02:11:04,VALID,917.379,VALID,0,VALID,97.0461,VALID,0.107441,VALID,18.4717,VALID,125,VALID,1.21484,
2009-11-17, 02:12:04,VALID,917.349,VALID,0,VALID,97.0537,VALID,0,VALID,18.4717,VALID,124,VALID,1.12656,
2009-11-17, 02:13:04,VALID,917.323,VALID,0,VALID,97.0842,VALID,0,VALID,18.4717,VALID,124,VALID,1.66836,
2009-11-17, 02:14:04,VALID,917.285,VALID,0,VALID,97.0918,VALID,0,VALID,18.4731,VALID,121,VALID,1.06953,
2009-11-17, 02:15:04,VALID,917.269,VALID,0,VALID,97.1223,VALID,0,VALID,18.4522,VALID,129,VALID,1.6832,
2009-11-17, 02:16:04,VALID,917.239,VALID,0,VALID,97.1681,VALID,0.107441,VALID,18.4522,VALID,122,VALID,1.19453,
2009-11-17, 02:17:04,VALID,917.25,VALID,0,VALID,97.1452,VALID,0.107441,VALID,18.4731,VALID,122,VALID,1.37109,
2009-11-17, 02:18:04,VALID,917.268,VALID,0,VALID,97.1757,VALID,0,VALID,18.4731,VALID,137,VALID,1.28945,
2009-11-17, 02:19:04,VALID,917.268,VALID,0,VALID,97.1681,VALID,0,VALID,18.4522,VALID,144,VALID,1.16602,
2009-11-17, 02:20:04,VALID,917.259,VALID,0,VALID,97.1681,VALID,0.107441,VALID,18.4731,VALID,144,VALID,1.15508,
2009-11-17, 02:21:04,VALID,917.259,VALID,0,VALID,97.1681,VALID,0.107441,VALID,18.4717,VALID,145,VALID,1.29805,
2009-11-17, 02:22:04,VALID,917.266,VALID,0,VALID,97.1452,VALID,0,VALID,18.4926,VALID,146,VALID,1.22305,
2009-11-17, 02:23:04,VALID,917.235,VALID,0,VALID,97.1528,VALID,0,VALID,18.4926,VALID,147,VALID,0.974219,
2009-11-17, 02:24:04,VALID,917.254,VALID,0,VALID,97.1528,VALID,0,VALID,18.4926,VALID,149,VALID,1.03984,
2009-11-17, 02:25:04,VALID,917.229,VALID,0,VALID,97.1528,VALID,0,VALID,18.4926,VALID,155,VALID,1.47461,
2009-11-17, 02:26:04,VALID,917.234,VALID,0,VALID,97.1452,VALID,0,VALID,18.5121,VALID,155,VALID,1.19375,
2009-11-17, 02:27:04,VALID,917.22,VALID,0,VALID,97.1452,VALID,0,VALID,18.5121,VALID,156,VALID,0.719922,
2009-11-17, 02:28:04,VALID,917.196,VALID,0,VALID,97.1528,VALID,0,VALID,18.4912,VALID,159,VALID,1.07813,
2009-11-17, 02:29:04,VALID,917.207,VALID,0,VALID,97.1604,VALID,0,VALID,18.5121,VALID,163,VALID,1.21836,
2009-11-17, 02:30:04,VALID,917.191,VALID,0,VALID,97.1604,VALID,0,VALID,18.5121,VALID,163,VALID,0.654297,
2009-11-17, 02:31:04,VALID,917.181,VALID,0,VALID,97.1757,VALID,0,VALID,18.5121,VALID,163,VALID,1.20234,
2009-11-17, 02:32:04,VALID,917.177,VALID,0,VALID,97.1909,VALID,0,VALID,18.5121,VALID,163,VALID,1.04844,
2009-11-17, 02:33:04,VALID,917.108,VALID,0,VALID,97.2214,VALID,0,VALID,18.4717,VALID,163,VALID,0.7125,
2009-11-17, 02:34:04,VALID,917.133,VALID,0,VALID,97.2519,VALID,0,VALID,18.4926,VALID,163,VALID,0.877734,
2009-11-17, 02:35:04,VALID,917.134,VALID,0,VALID,97.2519,VALID,0,VALID,18.4926,VALID,163,VALID,1.23672,
2009-11-17, 02:36:04,VALID,917.106,VALID,0,VALID,97.29,VALID,0,VALID,18.4926,VALID,163,VALID,0.533203,
2009-11-17, 02:37:04,VALID,917.106,VALID,0,VALID,97.3053,VALID,0,VALID,18.4926,VALID,163,VALID,1.11719,
2009-11-17, 02:38:04,VALID,917.099,VALID,0,VALID,97.2748,VALID,0,VALID,18.5135,VALID,163,VALID,0.731641,
2009-11-17, 02:39:04,VALID,917.072,VALID,0,VALID,97.29,VALID,0,VALID,18.4912,VALID,163,VALID,0.627734,
2009-11-17, 02:40:04,VALID,917.046,VALID,0,VALID,97.2824,VALID,0.107441,VALID,18.4912,VALID,154,VALID,1.08203,
2009-11-17, 02:41:04,VALID,917.067,VALID,0,VALID,97.2595,VALID,0,VALID,18.5107,VALID,152,VALID,1.64844,
2009-11-17, 02:42:04,VALID,917.015,VALID,0,VALID,97.2214,VALID,0.107441,VALID,18.5107,VALID,165,VALID,1.24727,
2009-11-17, 02:43:04,VALID,917,VALID,0,VALID,97.1909,VALID,0,VALID,18.4912,VALID,165,VALID,0.909375,
2009-11-17, 02:44:04,VALID,917.022,VALID,0,VALID,97.1833,VALID,0,VALID,18.4912,VALID,165,VALID,0.903516,
2009-11-17, 02:45:04,VALID,916.976,VALID,0,VALID,97.1299,VALID,0.107441,VALID,18.4912,VALID,165,VALID,1.09727,
2009-11-17, 02:46:04,VALID,916.985,VALID,0,VALID,97.0994,VALID,0,VALID,18.4912,VALID,114,VALID,1.19219,
2009-11-17, 02:47:04,VALID,916.988,VALID,0,VALID,97.0842,VALID,0,VALID,18.4717,VALID,114,VALID,0.944141,
2009-11-17, 02:48:04,VALID,916.975,VALID,0,VALID,97.0537,VALID,0.107441,VALID,18.4926,VALID,114,VALID,0.78125,
2009-11-17, 02:49:04,VALID,916.958,VALID,0,VALID,97.069,VALID,0,VALID,18.4522,VALID,114,VALID,0.884766,
2009-11-17, 02:50:04,VALID,916.935,VALID,0,VALID,97.0842,VALID,0.107441,VALID,18.4313,VALID,114,VALID,0.976563,
2009-11-17, 02:51:04,VALID,916.951,VALID,0,VALID,97.069,VALID,0,VALID,18.4522,VALID,114,VALID,0.516797,
2009-11-17, 02:52:04,VALID,916.944,VALID,0,VALID,97.0461,VALID,0.107441,VALID,18.4522,VALID,114,VALID,0.778125,
2009-11-17, 02:53:04,VALID,916.937,VALID,0,VALID,97.0537,VALID,0,VALID,18.4327,VALID,114,VALID,0.859766,
2009-11-17, 02:54:04,VALID,916.932,VALID,0,VALID,97.069,VALID,0,VALID,18.4341,VALID,114,VALID,0.721484,
2009-11-17, 02:55:04,VALID,916.933,VALID,0,VALID,97.0537,VALID,0,VALID,18.4355,VALID,114,VALID,0.649609,
2009-11-17, 02:56:04,VALID,916.921,VALID,0,VALID,97.0918,VALID,0,VALID,18.4146,VALID,114,VALID,0.514453,
2009-11-17, 02:57:04,VALID,916.948,VALID,0,VALID,97.1147,VALID,0,VALID,18.4146,VALID,114,VALID,0.274219,
2009-11-17, 02:58:04,VALID,916.917,VALID,0,VALID,97.1223,VALID,0,VALID,18.4146,VALID,114,VALID,0.205859,
2009-11-17, 02:59:04,VALID,916.939,VALID,0,VALID,97.1147,VALID,0,VALID,18.3951,VALID,114,VALID,0.574219,
2009-11-17, 03:00:04,VALID,916.956,VALID,0,VALID,97.0994,VALID,0,VALID,18.3951,VALID,114,VALID,0.741016,
2009-11-17, 03:01:04,VALID,916.937,VALID,0,VALID,97.1223,VALID,0,VALID,18.3756,VALID,114,VALID,0.454688,
2009-11-17, 03:02:04,VALID,916.912,VALID,0,VALID,97.1604,VALID,0,VALID,18.3561,VALID,114,VALID,0.319141,
2009-11-17, 03:03:04,VALID,916.919,VALID,0,VALID,97.1681,VALID,0,VALID,18.3561,VALID,114,VALID,0.544141,
2009-11-17, 03:04:04,VALID,916.889,VALID,0,VALID,97.1909,VALID,0,VALID,18.3561,VALID,114,VALID,1.09453,
2009-11-17, 03:05:04,VALID,916.897,VALID,0,VALID,97.1833,VALID,0,VALID,18.3561,VALID,114,VALID,0.982422,
2009-11-17, 03:06:04,VALID,916.869,VALID,0,VALID,97.1223,VALID,0,VALID,18.3756,VALID,114,VALID,1.21367,
2009-11-17, 03:07:04,VALID,916.872,VALID,0,VALID,97.1071,VALID,0,VALID,18.3756,VALID,119,VALID,1.22578,
2009-11-17, 03:08:04,VALID,916.872,VALID,0,VALID,97.0766,VALID,0,VALID,18.3756,VALID,128,VALID,0.817187,
2009-11-17, 03:09:04,VALID,916.897,VALID,0,VALID,97.0385,VALID,0,VALID,18.3561,VALID,122,VALID,0.8375,
2009-11-17, 03:10:04,VALID,916.921,VALID,0,VALID,97.0232,VALID,0,VALID,18.3366,VALID,122,VALID,0.970703,
2009-11-17, 03:11:04,VALID,916.901,VALID,0,VALID,97.0461,VALID,0,VALID,18.3366,VALID,122,VALID,0.901953,
2009-11-17, 03:12:04,VALID,916.875,VALID,0,VALID,97.0613,VALID,0,VALID,18.3172,VALID,122,VALID,0.851563,
2009-11-17, 03:13:04,VALID,916.915,VALID,0,VALID,97.0613,VALID,0,VALID,18.3172,VALID,122,VALID,0.876172,
2009-11-17, 03:14:04,VALID,916.893,VALID,0,VALID,97.0766,VALID,0,VALID,18.2977,VALID,122,VALID,0.844922,
2009-11-17, 03:15:04,VALID,916.868,VALID,0,VALID,97.0994,VALID,0,VALID,18.2977,VALID,122,VALID,0.3,
2009-11-17, 03:16:04,VALID,916.866,VALID,0,VALID,97.1147,VALID,0,VALID,18.2782,VALID,122,VALID,0.814453,
2009-11-17, 03:17:04,VALID,916.88,VALID,0,VALID,97.1299,VALID,0,VALID,18.299,VALID,122,VALID,0.710547,
2009-11-17, 03:18:04,VALID,916.868,VALID,0,VALID,97.1604,VALID,0,VALID,18.2587,VALID,122,VALID,0.630469,
2009-11-17, 03:19:04,VALID,916.858,VALID,0,VALID,97.1528,VALID,0,VALID,18.2392,VALID,122,VALID,1.18086,
2009-11-17, 03:20:04,VALID,916.869,VALID,0,VALID,97.1452,VALID,0,VALID,18.2197,VALID,122,VALID,1.17891,
2009-11-17, 03:21:04,VALID,916.822,VALID,0,VALID,97.1757,VALID,0,VALID,18.1988,VALID,122,VALID,0.979688,
2009-11-17, 03:22:04,VALID,916.805,VALID,0,VALID,97.1986,VALID,0,VALID,18.2197,VALID,122,VALID,1.17656,
2009-11-17, 03:23:04,VALID,916.814,VALID,0,VALID,97.2443,VALID,0,VALID,18.2002,VALID,115,VALID,1.27734,
2009-11-17, 03:24:04,VALID,916.812,VALID,0,VALID,97.229,VALID,0,VALID,18.1807,VALID,115,VALID,1.49102,
2009-11-17, 03:25:04,VALID,916.791,VALID,0,VALID,97.2367,VALID,0,VALID,18.1821,VALID,115,VALID,0.945313,
2009-11-17, 03:26:04,VALID,916.789,VALID,0,VALID,97.2672,VALID,0,VALID,18.1626,VALID,131,VALID,1.36133,
2009-11-17, 03:27:04,VALID,916.766,VALID,0,VALID,97.2748,VALID,0,VALID,18.1626,VALID,122,VALID,1.35781,
2009-11-17, 03:28:04,VALID,916.734,VALID,0,VALID,97.2519,VALID,0,VALID,18.1626,VALID,144,VALID,1.55664,
2009-11-17, 03:29:04,VALID,916.77,VALID,0,VALID,97.2519,VALID,0,VALID,18.1222,VALID,116,VALID,1.20938,
2009-11-17, 03:30:04,VALID,916.749,VALID,0,VALID,97.2138,VALID,0,VALID,18.1431,VALID,148,VALID,1.74063,
2009-11-17, 03:31:04,VALID,916.781,VALID,0,VALID,97.2062,VALID,0,VALID,18.1417,VALID,159,VALID,1.54141,
2009-11-17, 03:32:04,VALID,916.795,VALID,0,VALID,97.1833,VALID,0,VALID,18.1417,VALID,146,VALID,1.78008,
2009-11-17, 03:33:04,VALID,916.791,VALID,0,VALID,97.1147,VALID,0,VALID,18.1417,VALID,154,VALID,1.39023,
2009-11-17, 03:34:04,VALID,916.813,VALID,0,VALID,97.0994,VALID,0,VALID,18.1626,VALID,154,VALID,0.693359,
2009-11-17, 03:35:04,VALID,916.796,VALID,0,VALID,97.1071,VALID,0,VALID,18.1222,VALID,163,VALID,1.52891,
2009-11-17, 03:36:04,VALID,916.817,VALID,0,VALID,97.1223,VALID,0,VALID,18.1222,VALID,141,VALID,1.24688,
2009-11-17, 03:37:04,VALID,916.795,VALID,0.2,VALID,97.1147,VALID,0,VALID,18.1417,VALID,134,VALID,1.22227,
2009-11-17, 03:38:04,VALID,916.813,VALID,0,VALID,97.1376,VALID,0,VALID,18.1417,VALID,135,VALID,1.42148,
2009-11-17, 03:39:04,VALID,916.782,VALID,0,VALID,97.1223,VALID,0,VALID,18.1612,VALID,139,VALID,1.42852,
2009-11-17, 03:40:04,VALID,916.758,VALID,0,VALID,97.0613,VALID,0,VALID,18.1598,VALID,159,VALID,0.832812,
2009-11-17, 03:41:04,VALID,916.726,VALID,0,VALID,96.9851,VALID,0.107441,VALID,18.2002,VALID,141,VALID,1.21953,
2009-11-17, 03:42:04,VALID,916.709,VALID,0,VALID,96.9165,VALID,0,VALID,18.1807,VALID,133,VALID,1.30273,
2009-11-17, 03:43:04,VALID,916.713,VALID,0,VALID,96.8936,VALID,0,VALID,18.1807,VALID,121,VALID,1.35859,